Flag for India Weather past 2 weeks in Ganganagar, Rajasthan, India

Now
88 °F

Scattered clouds.


Feels Like: 98 °F
Forecast: 89 / 99 °F
Wind: 9 mph from Southeast

Location: Lahore Airport

Current Time: Jul 8, 2015 at 11:01:18 AM

Latest Report: Jul 8, 2015 at 10:25 AM


Visibility: 3 mi

Pressure: 29.56 "Hg

Humidity: 66%

Dew point: 75 °F

Location of GanganagarLocation

Historic Weather in Ganganagar — Graph

°F

Ganganagar temperature yesterday

Maximum temperature yesterday: 91 °F (at 2:25 PM)
Minimum temperature yesterday: 75 °F (at 5:55 AM)
Average temperature yesterday: 83 °F

Past Weeks' High & Low Weather Summary

 TemperatureHumidityPressure
High108 °F (Jun 28, 3:30 PM)100% (Jun 23, 11:55 AM)29.74 "Hg (Jun 23, 11:55 AM)
Low73 °F (Jun 25, 5:30 AM)26% (Jun 28, 4:30 PM)29.36 "Hg (Jul 5, 4:25 PM)
Average89 °F61%29.51 "Hg
* Reported Jun 23 9:55 AM — Jul 8 9:55 AM, Ganganagar, Weather by CustomWeather, © 2015

Note: Actual official high and low records may vary slightly from our data, if they occured in-between our weather recording intervals... More about our weather records

Advertising

Ganganagar weather history for previous 24 hours

 ConditionsComfort  
Time TempWeatherWind HumidityBarometerVisibility
9:55 AM
Wed, Jul 8
88 °FScattered clouds.9 mph66%29.56 "Hg3 mi
9:30 AM88 °FScattered clouds.9 mph66%29.56 "Hg3 mi
8:55 AM86 °FScattered clouds.8 mph70%29.56 "Hg2 mi
8:30 AM84 °FScattered clouds.7 mph74%29.56 "Hg2 mi
8:00 AM82 °FScattered clouds.N/A79%29.56 "Hg2 mi
7:30 AM82 °FFog.7 mph79%29.56 "Hg1 mi
6:30 AM81 °FFog.6 mph84%29.53 "Hg1 mi
5:30 AM81 °FPassing clouds.5 mph84%29.53 "Hg2 mi
5:00 AM81 °FPassing clouds.No wind84%29.53 "Hg2 mi
4:30 AM81 °FPassing clouds.3 mph84%29.53 "Hg2 mi
4:00 AM81 °FPassing clouds.No wind84%29.53 "Hg2 mi
3:30 AM81 °FPassing clouds.No wind84%29.53 "Hg2 mi
3:00 AM81 °FPassing clouds.No wind84%29.53 "Hg2 mi
2:25 AM81 °FPassing clouds.No wind84%29.53 "Hg2 mi
1:55 AM82 °FPassing clouds.No wind79%29.53 "Hg2 mi
1:24 AM82 °FPassing clouds.3 mph79%29.53 "Hg2 mi
12:55 AM82 °FPassing clouds.No wind79%29.53 "Hg2 mi
12:25 AM82 °FPassing clouds.No wind79%29.53 "Hg2 mi
11:55 PM
Tue, Jul 7
82 °FPassing clouds.3 mph79%29.53 "Hg2 mi
11:25 PM82 °FPassing clouds.5 mph79%29.53 "Hg2 mi
10:55 PM84 °FPassing clouds.5 mph74%29.53 "Hg2 mi
10:25 PM84 °FPassing clouds.3 mph74%29.53 "Hg2 mi
9:55 PM84 °FPassing clouds.3 mph74%29.53 "Hg2 mi
9:25 PM84 °FPassing clouds.No wind74%29.50 "Hg2 mi
8:56 PM86 °FPassing clouds.No wind70%29.50 "Hg2 mi
8:25 PM86 °FPartly cloudy.5 mph70%29.50 "Hg2 mi
7:55 PM86 °FPartly cloudy.7 mph70%29.47 "Hg2 mi
7:25 PM86 °FBroken clouds.5 mph70%29.47 "Hg2 mi
6:55 PM86 °FBroken clouds.7 mph70%29.47 "Hg2 mi
6:30 PM88 °FBroken clouds.5 mph70%29.47 "Hg2 mi
5:55 PM88 °FBroken clouds.5 mph70%29.45 "Hg2 mi
5:25 PM88 °FBroken clouds.5 mph70%29.47 "Hg2 mi
4:55 PM88 °FBroken clouds.No wind70%29.47 "Hg2 mi
4:25 PM88 °FBroken clouds.5 mph70%29.47 "Hg2 mi
3:55 PM90 °FScattered clouds.7 mph63%29.47 "Hg2 mi
3:25 PM91 °FBroken clouds.5 mph59%29.50 "Hg2 mi
3:00 PM91 °FBroken clouds.5 mph59%29.53 "Hg2 mi
2:25 PM91 °FScattered clouds.No wind59%29.53 "Hg2 mi
2:00 PM90 °FScattered clouds.No wind63%29.53 "Hg3 mi
1:25 PM90 °FScattered clouds.3 mph63%29.56 "Hg3 mi
12:55 PM88 °FBroken clouds.3 mph62%29.56 "Hg3 mi
12:25 PM88 °FBroken clouds.No wind62%29.56 "Hg3 mi
11:55 AM88 °FBroken clouds.3 mph62%29.56 "Hg3 mi
11:25 AM88 °FBroken clouds.3 mph62%29.56 "Hg3 mi
Weather by CustomWeather, © 2015

See weather overviewHow to use our weather pages